Weather History for PANC - March, 2014

Change the Weather History Date:

Monday, March 17, 2014

  Actual Average Record
Temperature  
Mean Temperature 26 °F 27 °F  
Max Temperature 32 °F 34 °F 49 °F (1970)
Min Temperature 20 °F 19 °F -15 °F (1959)
Degree Days  
Heating Degree Days 39    
Month to date heating degree days 654  
Since 1 July heating degree days 7403  
Cooling Degree Days 0    
Month to date cooling degree days 0  
Year to date cooling degree days 0  
Moisture  
Dew Point 19 °F    
Average Humidity 68    
Maximum Humidity 78    
Minimum Humidity 58    
Precipitation  
Precipitation T in 0.02 in 1.13 in (2002)
Month to date precipitation 0.67 0.35  
Year to date precipitation 2.69 1.80  
Snow  
Snow T in 0.30 in 22.00 in (2002)
Month to date snowfall 10.8 5.9  
Since 1 July snowfall 64.2 66.2  
Snow Depth 12.00 in    
Sea Level Pressure  
Sea Level Pressure 29.66 in    
Wind  
Wind Speed 6 mph (North)    
Max Wind Speed 10 mph    
Max Gust Speed -    
Visibility 9 miles    
Events Snow    
T = Trace of Precipitation, MM = Missing Value Source: NWS Daily Summary

Daily Weather History Graph

Daily Weather History Graph

Search for Another Location

Airport or City:

Trip Planner

Search our weather history database for the weather conditions in past years. The results will help you decide how hot, cold, wet, or windy it might be!

Date:

Astronomy

Mar. 17, 2014 Rise Set
Actual Time 8:10 AM AKDT 8:07 PM AKDT
Civil Twilight 7:27 AM AKDT 8:51 PM AKDT
Nautical Twilight 6:35 AM AKDT 9:42 PM AKDT
Astronomical Twilight 5:40 AM AKDT 10:38 PM AKDT
Moon 10:06 PM AKDT (3/17) 8:08 AM AKDT (3/17)
Length of Visible Light 13h 23m
Length of Day
11h 57m
Full, 99% of the Moon is Illuminated
Mar 17
Full
Mar 23
Last Quarter
Mar 30
New
Apr 7
First Quarter
Apr 14
Full

Hourly Weather History & Observations

Time (AKDT) Temp. Windchill Dew Point Humidity Pressure Visibility Wind Dir Wind Speed Gust Speed Precip Events Conditions
12:53 AM 21.9 °F 11.0 °F 14.0 °F 72% 29.65 in 10.0 mi NNW 10.4 mph - N/A   Overcast
1:53 AM 21.9 °F 11.0 °F 14.0 °F 72% 29.66 in 10.0 mi NNW 10.4 mph - N/A   Overcast
2:53 AM 21.9 °F 12.5 °F 12.9 °F 68% 29.66 in 10.0 mi North 8.1 mph - N/A   Overcast
3:53 AM 21.9 °F 15.7 °F 12.9 °F 68% 29.66 in 10.0 mi NNW 4.6 mph - N/A   Overcast
4:53 AM 21.9 °F 17.2 °F 12.9 °F 68% 29.66 in 10.0 mi North 3.5 mph - N/A   Overcast
5:53 AM 23.0 °F 13.9 °F 14.0 °F 68% 29.66 in 10.0 mi NNW 8.1 mph - N/A   Mostly Cloudy
6:53 AM 24.1 °F 18.2 °F 14.0 °F 65% 29.66 in 10.0 mi North 4.6 mph - N/A   Mostly Cloudy
7:53 AM 24.1 °F 15.2 °F 15.1 °F 69% 29.65 in 10.0 mi North 8.1 mph - N/A   Mostly Cloudy
8:53 AM 24.1 °F 16.0 °F 14.0 °F 65% 29.64 in 10.0 mi NNE 6.9 mph - N/A   Overcast
9:53 AM 25.0 °F 19.3 °F 14.0 °F 63% 29.64 in 10.0 mi North 4.6 mph - N/A   Overcast
10:53 AM 25.0 °F 17.1 °F 15.1 °F 66% 29.64 in 10.0 mi North 6.9 mph - N/A   Overcast
11:53 AM 27.0 °F 20.5 °F 16.0 °F 63% 29.65 in 10.0 mi North 5.8 mph - N/A   Overcast
12:53 PM 28.0 °F 21.7 °F 17.1 °F 63% 29.65 in 10.0 mi North 5.8 mph - N/A   Overcast
1:53 PM 30.0 °F 24.1 °F 18.0 °F 61% 29.66 in 10.0 mi NNW 5.8 mph - N/A   Overcast
2:53 PM 30.9 °F 24.3 °F 21.0 °F 67% 29.66 in 10.0 mi North 6.9 mph - N/A   Overcast
3:53 PM 32.0 °F 28.7 °F 23.0 °F 69% 29.66 in 10.0 mi NNW 3.5 mph - 0.00 in   Overcast
4:53 PM 32.0 °F 28.7 °F 21.0 °F 64% 29.66 in 10.0 mi ENE 3.5 mph - 0.00 in Snow Light Snow
5:53 PM 32.0 °F - 21.0 °F 64% 29.65 in 10.0 mi Calm Calm - 0.00 in Snow Light Snow
6:53 PM 32.0 °F - 21.9 °F 66% 29.65 in 10.0 mi Calm Calm - 0.00 in Snow Light Snow
7:46 PM 32.0 °F - 23.0 °F 69% 29.65 in 10.0 mi Calm Calm - 0.00 in Snow Light Snow
7:53 PM 32.0 °F - 24.1 °F 73% 29.66 in 2.5 mi Calm Calm - 0.00 in Snow Light Snow
7:57 PM 32.0 °F - 24.8 °F 75% 29.65 in 1.5 mi Calm Calm - 0.00 in Snow Light Snow
8:15 PM 30.2 °F - 24.8 °F 80% 29.65 in 2.5 mi Calm Calm - 0.00 in Snow Light Snow
8:24 PM 30.2 °F - 24.8 °F 80% 29.66 in 2.5 mi Calm Calm - 0.00 in Snow Light Snow
8:31 PM 30.2 °F - 24.8 °F 80% 29.66 in 10.0 mi Calm Calm - 0.00 in   Overcast
8:53 PM 30.9 °F - 25.0 °F 79% 29.67 in 10.0 mi Calm Calm - 0.00 in Snow Light Snow
9:53 PM 30.9 °F - 25.0 °F 79% 29.68 in 10.0 mi Calm Calm - 0.00 in Snow Light Snow
10:53 PM 30.0 °F - 24.1 °F 79% 29.70 in 10.0 mi Calm Calm - 0.00 in   Overcast
11:53 PM 30.0 °F 26.5 °F 23.0 °F 75% 29.71 in 10.0 mi North 3.5 mph - N/A   Overcast